Terminal Aerodrome Forecast
Issued by NWS Austin/San Antonio, TX

Home | Current Version | Previous Version | Text Only | Print | Product List | Glossary On
Versions: 1 2 3 4 5 6 7 8 9 10 11 12 13 14 15 16 17 18 19 20 21 22 23 24 25
353
FTUS44 KEWX 282322
TAFDRT
TAF
KDRT 282322Z 2900/2924 14018G28KT P6SM VCTS SCT035CB BKN200
     FM290300 33020G30KT 6SM -TSRA BKN030CB
     FM290600 32009KT P6SM SCT100=

USA.gov is the U.S. government's official web portal to all federal, state and local government web resources and services.